Regional Weather Roundup
Issued by NWS Charleston, WV

Home | Current Version | Previous Version | Text Only | Print | Product List | Glossary Off
Versions: 1 2 3 4 5 6 7 8 9 10 11 12 13 14 15 16 17 18 19 20 21 22 23 24 25 26 27 28 29 30 31 32 33 34 35 36 37 38 39 40 41 42 43 44 45 46 47 48 49 50

000
ASUS41 KRLX 091110
RWRRLX
West Virginia Regional Weather Roundup
National Weather Service Charleston WV
600 AM EST TUE FEB 09 2016

Note: "fair" indicates few or no clouds below 12,000 feet with no
significant weather and/or obstructions to visibility.

WVZ003-091200-
Northern Panhandle of West Virginia

CITY           SKY/WX    TMP DP  RH WIND       PRES   REMARKS
WHEELING       LGT SNOW  31  29  92 NW7       29.53R FOG
$$

WVZ009-091200-
Northwest West Virginia

CITY           SKY/WX    TMP DP  RH WIND       PRES   REMARKS
PARKERSBURG    LGT SNOW  25  22  88 W13G23    29.66R VSB 3/4
$$

WVZ006-091200-
Western West Virginia

CITY           SKY/WX    TMP DP  RH WIND       PRES   REMARKS
HUNTINGTON     CLOUDY    24  16  71 W10G20    29.71R
$$

WVZ015-091200-
West Central West Virginia

CITY           SKY/WX    TMP DP  RH WIND       PRES   REMARKS
CHARLESTON     LGT SNOW  26  21  81 W8        29.67R
$$

WVZ022-031-091200-
North Central West Virginia

CITY           SKY/WX    TMP DP  RH WIND       PRES   REMARKS
CLARKSBURG     LGT SNOW  30  28  92 W10       29.55R FOG
MORGANTOWN     LGT SNOW  31  27  85 CALM      29.54R FOG
$$

WVZ025-035-042-045-091200-
Southern West Virginia

CITY           SKY/WX    TMP DP  RH WIND       PRES   REMARKS
BECKLEY        LGT SNOW  23  18  81 W13G21    29.58R
LOGAN          LGT SNOW  23  19  86 W9G15     29.65R
BLUEFIELD      LGT SNOW  20  16  84 W10       29.58R FOG     WCI   9
LEWISBURG      LGT SNOW  30  26  85 W7        29.54S
$$

WVZ047-091200-
Northern Mountains of West Virginia

CITY           SKY/WX    TMP DP  RH WIND       PRES   REMARKS
ELKINS         LGT SNOW  29  25  85 CALM      29.53R FOG
$$

WVZ052-091200-
Eastern Panhandle of West Virginia

CITY           SKY/WX    TMP DP  RH WIND       PRES   REMARKS
MARTINSBURG    CLOUDY    33  32  96 CALM      29.55R FOG
PETERSBURG     CLOUDY    33  32  96 CALM      29.55S
$$



USA.gov is the U.S. government's official web portal to all federal, state and local government web resources and services.